| 型号/型号规格 | 厂商 | 封装 | 批号 | 数量 | 更新日期 | 询价 | ||
|---|---|---|---|---|---|---|---|---|
| L78M12ABDT-TR | ST/意法 | TO-252 | 22+ | 10000 | 2026-05-09 | |||
| MBRS360T3G | ONSEMI/安森美 | SMC | 22+ | 7500 | 2026-05-09 | |||
| UCC5350SBDR | TI/德州仪器 | SOP8 | 24+ | 14000 | 2026-05-09 | |||
| UCC5350MCDR | TI/德州仪器 | SOP8 | 24+ | 14000 | 2026-05-09 | |||
| SMBJ30A-E3/5B | VISHAY/威世 | DO-214AA | 22+ | 6769 | 2026-05-09 | |||
| ACPL-217-56AE | AVAGO/安华高 | SOP4 | 2251+ | 3000 | 2026-05-09 | |||
| NUP4302MR6T1G | ONSEMI/安森美 | SOT23-6 | 1719+ | 2933 | 2026-05-09 | |||
| LT3467ES6#TRPBF | ADI/亚德诺 | SOT23-6 | 2201+ | 2500 | 2026-05-09 |
| 型号/型号规格 | 厂商 | 封装 | 批号 | 数量 | 更新日期 | 询价 | ||
|---|---|---|---|---|---|---|---|---|
| UCC5350MCDR | TI/德州仪器 | SOP8 | 24+ | 14000 | 2026-05-09 | |||
| UCC5350SBDR | TI/德州仪器 | SOP8 | 24+ | 14000 | 2026-05-09 | |||
| PAC1934T-I/J6CX | MICROCHIP/微芯 | WLCSP16 | 22+ | 526 | 2026-05-09 | |||
| MAX8760ETL+T | MAXIM/美信 | QFN | 0910+ | 552 | 2026-05-09 |
| 型号/型号规格 | 厂商 | 封装 | 批号 | 数量 | 更新日期 | 询价 | ||
|---|---|---|---|---|---|---|---|---|
| K4EBE304ED-EGCG | SAMSUNG/三星 | BGA | 21+ | 2000 | 2026-05-09 | |||
| K4E6E304EB-EGCG | SAMSUNG/三星 | BGA | 17+ | 771 | 2026-05-09 |
| 型号/型号规格 | 厂商 | 封装 | 批号 | 数量 | 更新日期 | 询价 | ||
|---|---|---|---|---|---|---|---|---|
| MX29LV800CTTC-70G | MXIC/旺宏 | TSOP48 | 1037+ | 985 | 2026-05-09 | |||
| MX29LV800CBTC-90G | MXIC/旺宏 | TSOP | 0940+ | 1532 | 2026-05-09 |
| 型号/型号规格 | 厂商 | 封装 | 批号 | 数量 | 更新日期 | 询价 | ||
|---|---|---|---|---|---|---|---|---|
| BCM3409KMLG | BROADCOM/博通 | QFN | 1047+ | 1210 | 2026-05-09 | |||
| SCH5514E-NS | SMSC | QFP | 10+ | 3088 | 2026-05-09 |
| 型号/型号规格 | 厂商 | 封装 | 批号 | 数量 | 更新日期 | 询价 | ||
|---|---|---|---|---|---|---|---|---|
| RTD2168-CGT | REALTEK/瑞昱 | QFN | 18+ | 5910 | 2026-05-09 | |||
| H9CCNNN8KTALBR-NTD | SKHYNIX/海力士 | BGA | 14+ | 208 | 2026-05-09 |
| 型号/型号规格 | 厂商 | 封装 | 批号 | 数量 | 更新日期 | 询价 | ||
|---|---|---|---|---|---|---|---|---|
| IRF8707TRPBF | IR | SOP8 | 08+ | 1894 | 2026-05-09 |
| 型号/型号规格 | 厂商 | 封装 | 批号 | 数量 | 更新日期 | 询价 | ||
|---|---|---|---|---|---|---|---|---|
| 553SDCGI8 | RENESAS/瑞萨 | SOP8 | 21+ | 3459 | 2026-05-09 |
| 型号/型号规格 | 厂商 | 封装 | 批号 | 数量 | 更新日期 | 询价 | ||
|---|---|---|---|---|---|---|---|---|
| NCP5387MNR2G | ONSEMI/安森美 | QFN | 1003+ | 923 | 2026-05-09 |
| 型号/型号规格 | 厂商 | 封装 | 批号 | 数量 | 更新日期 | 询价 | ||
|---|---|---|---|---|---|---|---|---|
| MAX9032ASA | MAXIM/美信 | SOP8 | 04+ | 731 | 2026-05-09 |
| 型号/型号规格 | 厂商 | 封装 | 批号 | 数量 | 更新日期 | 询价 | ||
|---|---|---|---|---|---|---|---|---|
| ICS91730AMLFT | IDT | SOP8 | 10+ | 1732 | 2026-05-09 |
| 型号/型号规格 | 厂商 | 封装 | 批号 | 数量 | 更新日期 | 询价 | ||
|---|---|---|---|---|---|---|---|---|
| TPS40002DGQR | TI/德州仪器 | MSOP | 10+ | 5124 | 2026-05-09 | |||
| IDT5V925BQGI | IDT | SSOP | 16+ | 6036 | 2026-05-09 | |||
| MAX9892ERT+T | MAXIM/美信 | UCSP6 | 20+ | 5000 | 2026-05-09 | |||
| MCDP6150C1 | KINETIC/芯凯 | VQFN46 | 2116+ | 44 | 2026-05-09 | |||
| 553SDCGI8 | RENESAS/瑞萨 | SOP8 | 23+ | 3459 | 2026-05-09 | |||
| 0735910142 | MOLEX/莫仕 | SMD | 21+ | 320 | 2026-05-09 | |||
| 0735910567 | MOLEX/莫仕 | SMD | 19+ | 520 | 2026-05-09 | |||
| 0735910841 | MOLEX/莫仕 | SMD | 21+ | 900 | 2026-05-09 |
| 型号/型号规格 | 厂商 | 封装 | 批号 | 数量 | 更新日期 | 询价 | ||
|---|---|---|---|---|---|---|---|---|
| PAC1934T-I/J6CX | MICROCHIP/微芯 | WLCSP16 | 2031+ | 40 | 2026-05-09 | |||
| MAX8760ETL+T | MAXIM/美信 | QFN | 0910+ | 552 | 2026-05-09 | |||
| UCC5350MCDR | TI/德州仪器 | SOP8 | 23+ | 11000 | 2026-05-09 | |||
| UCC5350SBDR | TI/德州仪器 | SOP8 | 23+ | 11000 | 2026-05-09 |
| 型号/型号规格 | 厂商 | 封装 | 批号 | 数量 | 更新日期 | 询价 | ||
|---|---|---|---|---|---|---|---|---|
| BCM3409KMLG | BROADCOM/博通 | QFN | 1047+0849+ | 1210 | 2026-05-09 | |||
| SCH5514E-NS | SMSC | QFP128 | 10+ | 3847 | 2026-05-09 | |||
| PC8375T0IBM/VLA | NS/美国国半 | QFP128 | 0552+ | 3257 | 2026-05-09 | |||
| LM5574MT/NOPB | NS/美国国半 | TSSOP | 13+ | 42 | 2026-05-09 |
| 型号/型号规格 | 厂商 | 封装 | 批号 | 数量 | 更新日期 | 询价 | ||
|---|---|---|---|---|---|---|---|---|
| MX25U12872FM2I02 | MXIC/旺宏 | SOP8 | 20+ | 6850 | 2026-05-09 | |||
| MX29LV800CBTC-90G | MXIC/旺宏 | TSOP | 0934+ | 1532 | 2026-05-09 | |||
| MX29LV800CTTC-70G | MXIC/旺宏 | TSOP | 10+ | 965 | 2026-05-09 |
| 型号/型号规格 | 厂商 | 封装 | 批号 | 数量 | 更新日期 | 询价 | ||
|---|---|---|---|---|---|---|---|---|
| K4E6E304EB-EGCG | SAMSUNG/三星 | BGA | 1749+ | 771 | 2026-05-09 | |||
| K4EBE304ED-EGCG | SAMSUNG/三星 | BGA | 19+ | 539 | 2026-05-09 |
| 型号/型号规格 | 厂商 | 封装 | 批号 | 数量 | 更新日期 | 询价 | ||
|---|---|---|---|---|---|---|---|---|
| TPS82130SILR | TI/德州仪器 | USIP8 | 2507+ | 85 | 2026-05-09 |
| 型号/型号规格 | 厂商 | 封装 | 批号 | 数量 | 更新日期 | 询价 | ||
|---|---|---|---|---|---|---|---|---|
| LM99CIMMX/NOPB | NS/美国国半 | TSOP8 | 0924+ | 458 | 2026-05-09 |
| 型号/型号规格 | 厂商 | 封装 | 批号 | 数量 | 更新日期 | 询价 | ||
|---|---|---|---|---|---|---|---|---|
| 553SDCGI8 | RENESAS/瑞萨 | SOP8 | 23+ | 3459 | 2026-05-09 |
| 型号/型号规格 | 厂商 | 封装 | 批号 | 数量 | 更新日期 | 询价 | ||
|---|---|---|---|---|---|---|---|---|
| MAX9032ASA | MAXIM/美信 | SOP8 | 05+ | 731 | 2026-05-09 |
| 型号/型号规格 | 厂商 | 封装 | 批号 | 数量 | 更新日期 | 询价 | ||
|---|---|---|---|---|---|---|---|---|
| AOZ2260QI-10 | AOS/万代 | QFN | 24+ | 3613 | 2026-05-09 |
| 型号/型号规格 | 厂商 | 封装 | 批号 | 数量 | 更新日期 | 询价 | ||
|---|---|---|---|---|---|---|---|---|
| RT9610BZQW | RICHTEK/立锜 | QFN | 2143+ | 2339 | 2026-05-09 |